STARLINK-1800, 46700

Orbit data source: Space-Track

STARLINK-1800, 46700 is a payload satellite owned by SpaceX/Seattle (US) in LEO that was launched on Sun, 18 Oct 2020 UTC via an FALCON 9 launch vehicle from the Air Force Eastern Test Range (AFETR). Payload-class satellites include a variety of spacecraft equipped with specific instruments for various scientific and technological missions. These include communications satellites like Starlink; space stations such as the ISS; scientific satellites like the Hubble; Earth observation satellites from companies like Planet Labs, Umbra, and HawkEye 360; GPS; miniature CubeSats for education and research; and military/defense satellites.

Loading next visibility...
Identifier
46700, 2020-073AG
Orbit
LEO
Country
Flag of USUS
Related business
Manufacturer
SpaceX/Seattle
Mission
Partially operational Commercial Communications
Bus & Motor
STARLINK, Unknown motor
Mass
260 kg wet, ~248 kg dry
Launch date (UTC)
2020-10-18 (5 years ago)
Launch vehicle
FALCON 9
Launch site
Air Force Eastern Test Range (AFETR)
Object type
Payload
Rocket body
Debris
Shape & HBR
Box + 1 Pan, 10.1 m
Radar Cross Section
13.562 m², Large (>1 m²)

Expand to show TLE details & history
Last TLE update: 9 hours ago

TLE from 9 hours ago
0 STARLINK-1800
1 46700U 20073AG  26033.66670139  .01215818  00000-0  11769-1 0  9992
2 46700  53.0453  23.2720 0001335  87.3515 186.3302 15.63051546  5921
Epoch: 2026-02-02T16:00Z
TLE epoch observation values (Epoch: 2026-02-02T16:00:03.000Z)
Latitude
-53.04352°
Longitude
-73.50718°
Altitude
398.157 km
Speed
7.671 km/s
True Right ascension
19h 57m 27s
True Declination
-52° 52' 10"
Sunlit
Object was in daylight at epoch
Visualization orbit readout
Latitude
Unknown
Longitude
Unknown
Altitude
Unknown
Speed
Unknown
Apparent Right ascension
Unknown
Apparent Declination
Unknown
Sunlit
N/A
Visualization observer readout
Local Sidereal Time
02:38:44
Azimuth
Unknown
Elevation
Unknown
Doppler factor
Unknown
Orbital elements
Apogee altitude
380.029 km
Perigee altitude
378.225 km
Semi-major axis
6,757.264 km
Eccentricity
0.00013
Inclination
53.0453°
RAAN
23.272°
Arg. of periapsis
87.3515°
True anomaly
186.32851°
Mean anomaly
186.3302°
Eccentric anomaly
186.32936°
Mean motion
3.90739 °/min
Orbital period
92.13 mins
BSTAR
0.011769
Loading maneuver chart data...
Computing Atmospheric mass density...
Loading historical data...
Loading historical data...
Loading historical data...
Loading historical data...
Loading historical data...
Loading historical data...
Loading historical data...

Documentation

Showing up to 5 results
|